Temp
-15 -16 -17 -18 -17 -18 -19 -20 -21 -21 -21 -21 -21 -20 -20 -18 -18 -17 -17 -17 -17 -17 -16 -15 -14 -14 -14 -14 -13 -12 -12 -12 -11 -11 -11 -11 -11 -10 -10 -10 -10 -10 -10 -10 -9 -9 -10
-15 -15 -16 -17 -17 -17 -18 -18 -18 -18 -19 -19 -19 -19 -18 -19 -18 -18 -17 -17 -18 -17 -15 -15 -14 -14 -14 -14 -13 -12 -12 -12 -12 -11 -11 -11 -11 -11 -11 -10 -10 -10 -10 -10 -10 -10 -10
-15 -15 -16 -16 -17 -17 -18 -18 -18 -18 -19 -18 -19 -18 -18 -18 -18 -18 -18 -17 -17 -16 -15 -15 -14 -14 -14 -13 -13 -13 -12 -12 -12 -11 -11 -11 -11 -11 -11 -10 -10 -11 -10 -10 -10 -10 -10
-15 -16 -16 -16 -16 -17 -18 -18 -18 -18 -18 -18 -18 -19 -18 -18 -18 -18 -17 -17 -17 -15 -15 -14 -14 -14 -13 -13 -13 -12 -12 -12 -12 -11 -11 -11 -11 -11 -11 -11 -11 -11 -11 -11 -11 -10 -10
-15 -16 -16 -16 -16 -16 -17 -18 -18 -18 -18 -18 -18 -18 -18 -19 -18 -18 -17 -17 -16 -15 -14 -14 -14 -14 -13 -13 -13 -12 -12 -12 -12 -11 -11 -11 -11 -11 -11 -10 -10 -11 -11 -11 -10 -10 -10
-16 -16 -16 -16 -16 -16 -17 -18 -18 -18 -18 -18 -18 -18 -19 -18 -18 -17 -17 -17 -15 -15 -14 -14 -14 -13 -13 -13 -13 -12 -12 -12 -11 -11 -11 -11 -11 -12 -11 -11 -11 -11 -11 -11 -11 -10 -10
-16 -16 -16 -16 -16 -17 -16 -17 -18 -18 -18 -17 -18 -18 -18 -18 -18 -17 -17 -16 -16 -15 -14 -14 -14 -13 -13 -13 -12 -12 -12 -12 -12 -12 -12 -12 -12 -12 -12 -12 -11 -11 -11 -11 -11 -11 -11
-15 -16 -16 -16 -17 -17 -17 -17 -17 -18 -18 -17 -17 -17 -17 -17 -18 -18 -17 -16 -16 -15 -15 -15 -14 -14 -13 -13 -13 -12 -12 -13 -12 -12 -12 -12 -12 -12 -12 -12 -12 -12 -12 -11 -11 -11 -11
-15 -15 -15 -16 -17 -17 -17 -17 -17 -17 -17 -16 -17 -17 -16 -17 -18 -17 -17 -16 -15 -15 -15 -14 -14 -14 -14 -13 -13 -13 -13 -13 -13 -13 -12 -12 -12 -12 -12 -12 -12 -12 -12 -12 -12 -12 -12
-14 -15 -15 -15 -16 -16 -17 -17 -17 -17 -17 -17 -16 -17 -17 -17 -17 -16 -16 -15 -15 -15 -15 -15 -14 -14 -14 -14 -13 -13 -13 -13 -13 -13 -13 -12 -12 -12 -12 -12 -12 -12 -12 -12 -12 -12 -12
-14 -14 -15 -15 -15 -15 -15 -16 -16 -16 -16 -16 -15 -15 -16 -16 -16 -15 -15 -15 -15 -15 -15 -15 -14 -14 -14 -14 -13 -13 -13 -13 -13 -13 -13 -13 -13 -12 -12 -12 -12 -12 -12 -12 -13 -13 -13
-14 -14 -14 -14 -15 -15 -15 -15 -15 -16 -16 -16 -16 -16 -15 -15 -15 -15 -15 -15 -14 -14 -15 -14 -14 -14 -14 -14 -13 -13 -13 -13 -13 -13 -13 -13 -12 -12 -13 -12 -13 -13 -13 -13 -13 -13 -13
-13 -14 -14 -14 -14 -15 -15 -15 -15 -15 -15 -16 -16 -16 -16 -15 -15 -15 -15 -15 -14 -14 -14 -14 -14 -14 -14 -14 -13 -13 -13 -13 -13 -13 -13 -13 -13 -13 -13 -13 -13 -13 -13 -13 -13 -13 -13
-14 -14 -14 -14 -14 -14 -14 -14 -15 -15 -15 -15 -15 -15 -15 -15 -15 -15 -15 -14 -14 -14 -14 -14 -13 -13 -13 -13 -13 -13 -13 -13 -13 -13 -13 -13 -13 -13 -13 -13 -13 -13 -13 -13 -13 -13 -13
-14 -14 -14 -14 -14 -14 -14 -14 -14 -14 -15 -15 -15 -15 -15 -15 -15 -15 -15 -15 -15 -14 -14 -14 -14 -14 -14 -14 -14 -14 -14 -13 -14 -14 -13 -13 -13 -13 -13 -13 -13 -13 -13 -13 -13 -13 -13
-14 -14 -14 -14 -14 -14 -14 -14 -14 -14 -14 -14 -14 -14 -14 -14 -14 -15 -15 -14 -14 -14 -14 -14 -14 -14 -14 -14 -14 -14 -14 -14 -13 -13 -13 -13 -13 -13 -13 -13 -13 -13 -13 -13 -13 -13 -13
-14 -14 -14 -14 -14 -14 -14 -14 -14 -14 -14 -14 -14 -14 -14 -14 -14 -14 -14 -14 -14 -14 -14 -14 -14 -14 -14 -14 -14 -13 -13 -13 -13 -13 -13 -13 -13 -13 -13 -13 -13 -13 -13 -13 -13 -13 -13
-14 -14 -14 -15 -15 -14 -14 -14 -14 -14 -14 -14 -13 -13 -13 -13 -14 -13 -13 -13 -13 -13 -13 -13 -13 -13 -13 -13 -13 -13 -13 -13 -13 -13 -13 -13 -13 -13 -13 -13 -13 -13 -13 -13 -13 -13 -13
-14 -14 -14 -15 -15 -15 -15 -14 -14 -14 -14 -13 -13 -13 -13 -13 -13 -13 -13 -13 -13 -13 -13 -13 -13 -13 -13 -13 -13 -13 -13 -13 -13 -13 -13 -13 -13 -13 -13 -13 -13 -13 -13 -13 -13 -13 -13
-14 -14 -15 -15 -15 -15 -15 -15 -15 -14 -14 -14 -13 -13 -13 -13 -13 -13 -13 -13 -13 -13 -13 -13 -13 -13 -13 -13 -13 -13 -13 -13 -13 -13 -13 -13 -13 -13 -13 -13 -13 -13 -13 -13 -13 -13 -13
-14 -15 -15 -15 -15 -15 -15 -15 -15 -15 -14 -14 -14 -13 -13 -13 -13 -13 -13 -13 -13 -13 -13 -13 -13 -13 -13 -13 -13 -13 -13 -13 -13 -13 -13 -13 -13 -13 -13 -13 -13 -13 -13 -13 -12 -13 -12
-15 -15 -15 -15 -15 -15 -16 -16 -16 -15 -14 -14 -13 -13 -13 -13 -13 -12 -12 -12 -12 -12 -12 -12 -13 -13 -13 -13 -13 -13 -13 -13 -13 -13 -13 -13 -12 -13 -13 -13 -13 -12 -13 -12 -12 -12 -12
-15 -15 -15 -15 -15 -15 -16 -16 -16 -15 -15 -14 -14 -14 -13 -13 -13 -13 -13 -13 -13 -12 -12 -12 -12 -12 -12 -12 -13 -13 -13 -13 -12 -12 -12 -12 -12 -12 -12 -12 -12 -12 -12 -12 -12 -12 -12
-15 -15 -16 -16 -16 -16 -16 -16 -15 -15 -15 -14 -14 -14 -14 -13 -13 -13 -13 -13 -13 -13 -13 -13 -13 -13 -13 -13 -13 -13 -12 -12 -12 -13 -12 -12 -12 -12 -12 -12 -12 -12 -12 -12 -12 -13 -13
-16 -16 -16 -16 -16 -15 -15 -15 -15 -15 -14 -14 -14 -14 -14 -14 -14 -14 -13 -13 -13 -13 -13 -14 -13 -14 -14 -13 -13 -13 -13 -13 -13 -13 -13 -13 -13 -13 -13 -13 -12 -13 -13 -13 -13 -12 -13
-16 -15 -15 -15 -16 -15 -15 -15 -14 -15 -15 -14 -15 -14 -14 -14 -14 -14 -14 -14 -14 -14 -14 -14 -14 -14 -14 -14 -14 -14 -14 -14 -13 -14 -14 -14 -14 -14 -14 -13 -13 -13 -14 -13 -13 -13 -13
-15 -16 -15 -15 -15 -15 -15 -15 -15 -14 -14 -15 -15 -15 -15 -15 -15 -14 -14 -15 -15 -15 -15 -15 -15 -15 -15 -14 -14 -15 -14 -15 -14 -14 -14 -15 -15 -15 -15 -14 -14 -15 -15 -14 -14 -13 -13
-15 -15 -15 -15 -15 -15 -15 -15 -15 -15 -15 -14 -14 -14 -15 -15 -15 -15 -15 -15 -15 -15 -15 -15 -15 -16 -16 -16 -15 -15 -15 -15 -15 -15 -15 -15 -15 -15 -15 -15 -14 -15 -15 -15 -15 -14 -14
-15 -15 -15 -16 -15 -15 -15 -16 -16 -16 -16 -16 -15 -15 -15 -15 -15 -15 -15 -15 -15 -16 -16 -16 -16 -16 -16 -16 -16 -16 -15 -15 -16 -16 -16 -15 -16 -15 -15 -15 -15 -15 -15 -15 -14 -14 -15
Height
5693 5680 5669 5657 5646 5636 5624 5618 5616 5616 5617 5617 5620 5626 5629 5631 5642 5647 5654 5669 5684 5694 5707 5720 5732 5744 5754 5763 5771 5780 5787 5794 5801 5807 5813 5817 5822 5825 5828 5830 5831 5833 5835 5836 5836 5835 5835
5700 5690 5679 5668 5660 5650 5642 5638 5632 5633 5633 5631 5635 5640 5646 5647 5652 5656 5663 5677 5692 5701 5713 5724 5735 5746 5756 5765 5772 5780 5787 5794 5800 5806 5810 5815 5819 5823 5825 5827 5828 5830 5830 5831 5831 5831 5831
5710 5700 5689 5679 5670 5663 5657 5652 5647 5648 5647 5647 5648 5651 5654 5653 5658 5666 5674 5689 5700 5707 5718 5729 5739 5748 5758 5767 5773 5780 5787 5793 5799 5804 5808 5812 5816 5820 5822 5824 5825 5825 5826 5826 5826 5826 5826
5718 5709 5700 5691 5681 5674 5669 5665 5662 5658 5659 5658 5658 5659 5661 5662 5669 5677 5687 5699 5705 5714 5724 5733 5742 5751 5760 5767 5774 5781 5787 5792 5797 5802 5805 5809 5813 5816 5818 5820 5820 5821 5821 5821 5821 5821 5821
5725 5718 5710 5702 5693 5685 5678 5675 5673 5669 5668 5668 5668 5669 5671 5675 5682 5688 5697 5703 5712 5720 5728 5737 5745 5754 5761 5768 5775 5781 5786 5791 5796 5799 5802 5806 5809 5812 5815 5816 5817 5817 5816 5816 5816 5816 5815
5734 5726 5718 5711 5703 5696 5689 5684 5681 5679 5677 5676 5678 5679 5682 5686 5694 5699 5705 5711 5719 5726 5733 5741 5748 5757 5763 5769 5775 5780 5785 5790 5795 5798 5802 5804 5807 5809 5811 5812 5813 5813 5812 5812 5811 5812 5809
5740 5733 5726 5720 5713 5707 5700 5694 5689 5686 5686 5685 5687 5692 5694 5698 5704 5709 5713 5721 5727 5733 5738 5746 5752 5758 5764 5770 5776 5780 5785 5789 5793 5795 5799 5802 5805 5806 5807 5808 5809 5808 5808 5807 5805 5805 5804
5747 5740 5733 5727 5722 5716 5711 5705 5700 5696 5693 5695 5697 5701 5705 5710 5714 5718 5722 5726 5733 5740 5744 5750 5756 5762 5767 5772 5776 5780 5786 5790 5791 5794 5796 5800 5801 5803 5804 5804 5804 5804 5803 5802 5801 5799 5797
5755 5749 5742 5736 5731 5726 5720 5715 5711 5706 5705 5704 5708 5712 5715 5718 5721 5726 5730 5734 5738 5744 5751 5756 5760 5765 5770 5774 5777 5782 5785 5787 5790 5792 5794 5796 5799 5799 5800 5800 5800 5799 5798 5796 5795 5793 5790
5762 5757 5752 5745 5740 5735 5731 5726 5722 5719 5717 5717 5720 5723 5725 5727 5731 5733 5736 5739 5743 5748 5754 5759 5763 5767 5771 5773 5778 5781 5784 5787 5789 5790 5792 5793 5795 5795 5795 5795 5795 5794 5792 5791 5789 5787 5785
5768 5764 5759 5754 5749 5744 5740 5737 5733 5730 5728 5728 5729 5730 5733 5736 5737 5739 5742 5745 5749 5753 5757 5762 5765 5768 5771 5776 5779 5781 5783 5785 5787 5788 5791 5792 5791 5791 5791 5791 5790 5790 5788 5787 5785 5783 5781
5775 5771 5766 5762 5758 5754 5750 5746 5744 5741 5738 5737 5736 5736 5738 5740 5742 5745 5747 5750 5754 5759 5761 5764 5767 5770 5774 5776 5778 5780 5782 5784 5785 5787 5787 5787 5788 5788 5787 5787 5786 5785 5785 5784 5783 5781 5780
5780 5777 5773 5769 5766 5762 5758 5755 5752 5750 5748 5745 5744 5744 5744 5745 5746 5749 5751 5754 5759 5760 5764 5767 5769 5771 5774 5776 5778 5779 5781 5782 5783 5783 5784 5784 5785 5784 5784 5783 5783 5783 5783 5782 5781 5779 5777
5784 5781 5778 5775 5772 5769 5766 5763 5760 5758 5755 5754 5752 5751 5750 5750 5751 5752 5754 5757 5759 5762 5764 5767 5769 5771 5773 5774 5776 5777 5778 5778 5779 5780 5781 5781 5782 5782 5782 5782 5782 5781 5780 5779 5778 5776 5774
5788 5785 5782 5779 5776 5773 5771 5769 5767 5764 5762 5760 5759 5758 5757 5756 5756 5756 5758 5759 5760 5762 5764 5766 5768 5769 5771 5772 5774 5775 5776 5776 5777 5778 5780 5780 5781 5780 5780 5780 5780 5778 5778 5778 5776 5774 5772
5792 5789 5786 5783 5780 5778 5775 5774 5772 5769 5768 5766 5764 5763 5762 5761 5760 5760 5761 5761 5762 5764 5765 5767 5768 5770 5771 5772 5773 5774 5775 5776 5777 5778 5778 5779 5779 5779 5778 5778 5778 5777 5776 5776 5773 5772 5771
5794 5792 5789 5787 5785 5782 5779 5777 5775 5774 5772 5771 5769 5768 5766 5765 5765 5765 5764 5764 5765 5766 5767 5768 5769 5771 5772 5773 5774 5775 5776 5777 5776 5777 5777 5777 5778 5778 5777 5776 5776 5775 5774 5772 5771 5770 5769
5793 5791 5790 5788 5787 5785 5783 5780 5777 5776 5775 5774 5772 5771 5770 5769 5769 5768 5767 5767 5767 5768 5769 5770 5771 5772 5772 5773 5774 5775 5775 5775 5775 5775 5775 5775 5775 5775 5775 5773 5772 5771 5770 5769 5768 5768 5765
5791 5790 5788 5786 5786 5784 5783 5781 5778 5777 5775 5774 5773 5773 5772 5771 5771 5770 5770 5770 5770 5770 5770 5771 5772 5772 5773 5773 5774 5773 5774 5774 5773 5773 5773 5773 5772 5772 5771 5771 5769 5768 5766 5765 5763 5762 5762
5789 5787 5786 5783 5782 5781 5781 5779 5778 5775 5773 5773 5772 5772 5771 5771 5770 5771 5770 5770 5770 5770 5770 5771 5771 5772 5772 5772 5772 5772 5771 5771 5770 5770 5769 5769 5768 5767 5767 5766 5764 5763 5761 5759 5757 5757 5755
5785 5784 5783 5780 5778 5775 5775 5775 5774 5772 5771 5769 5768 5768 5768 5768 5768 5768 5769 5769 5769 5769 5769 5769 5769 5769 5769 5769 5769 5768 5768 5767 5767 5766 5765 5764 5764 5762 5761 5759 5757 5757 5755 5752 5751 5750 5744
5778 5778 5777 5776 5773 5771 5769 5767 5768 5767 5765 5765 5764 5763 5763 5762 5763 5764 5764 5765 5765 5765 5766 5765 5765 5765 5764 5764 5764 5763 5762 5761 5761 5760 5758 5758 5757 5756 5756 5752 5749 5749 5747 5745 5742 5740 5739
5772 5771 5770 5769 5767 5764 5762 5760 5759 5760 5760 5758 5758 5758 5757 5757 5756 5757 5757 5758 5758 5759 5760 5760 5760 5759 5758 5758 5757 5756 5755 5754 5754 5753 5751 5750 5748 5747 5748 5745 5742 5743 5738 5735 5734 5732 5731
5764 5763 5762 5761 5760 5757 5756 5753 5752 5751 5752 5753 5751 5751 5750 5750 5750 5751 5751 5750 5751 5751 5751 5751 5751 5751 5752 5750 5749 5748 5747 5746 5746 5744 5743 5742 5739 5738 5738 5736 5734 5734 5731 5726 5725 5723 5721
5755 5754 5753 5752 5753 5751 5750 5748 5746 5745 5745 5745 5745 5744 5743 5743 5743 5742 5743 5743 5743 5743 5743 5743 5743 5742 5740 5740 5739 5738 5738 5738 5737 5737 5735 5732 5730 5728 5727 5727 5726 5724 5722 5717 5714 5712 5710
5746 5747 5746 5745 5745 5745 5745 5744 5743 5740 5739 5738 5738 5738 5738 5737 5736 5736 5736 5736 5736 5735 5735 5734 5734 5733 5732 5732 5730 5730 5729 5728 5727 5728 5726 5723 5720 5719 5717 5713 5714 5716 5712 5707 5703 5697 5699
5738 5739 5739 5738 5739 5737 5737 5738 5737 5736 5735 5734 5733 5732 5732 5732 5731 5729 5729 5729 5729 5729 5728 5728 5726 5725 5724 5722 5721 5721 5720 5720 5718 5718 5718 5714 5711 5709 5706 5700 5704 5703 5701 5698 5695 5693 5685
5729 5728 5729 5730 5730 5730 5730 5729 5729 5730 5730 5730 5729 5728 5728 5725 5726 5725 5724 5723 5722 5720 5719 5721 5718 5718 5715 5714 5713 5712 5710 5711 5710 5708 5707 5705 5702 5701 5696 5692 5691 5693 5687 5686 5683 5678 5675
5719 5717 5717 5717 5718 5719 5720 5721 5721 5721 5720 5721 5722 5721 5720 5718 5718 5716 5716 5715 5715 5714 5712 5712 5709 5707 5704 5703 5702 5698 5699 5699 5699 5697 5697 5693 5692 5687 5689 5685 5682 5674 5665 5663 5662 5661 5660
Wind_Speed
58 54 48 50 43 46 47 41 32 30 20 20 27 42 47 43 23 27 39 46 40 45 48 47 44 41 40 40 42 44 44 40 38 36 34 32 32 31 30 30 29 29 30 31 33 32 33
55 60 56 50 45 42 46 46 41 39 40 37 36 37 30 21 18 22 41 45 45 45 43 43 40 37 35 37 38 40 40 37 35 34 33 31 32 31 30 29 29 30 32 33 33 33 31
49 56 59 54 47 46 35 42 36 35 33 28 22 22 19 25 26 17 46 45 45 43 42 40 37 35 34 34 36 37 37 36 33 32 31 29 30 28 27 27 28 31 35 36 33 33 30
45 51 55 56 54 45 38 35 32 30 27 30 25 20 20 42 36 42 46 46 44 42 40 38 35 33 31 32 35 35 35 33 33 31 28 28 29 31 30 30 32 33 32 33 31 32 31
41 45 48 53 50 52 41 36 29 31 29 22 25 29 29 47 41 47 46 45 43 41 40 38 35 33 30 29 33 34 34 32 32 31 30 31 34 37 37 37 38 33 32 30 32 32 33
37 41 43 50 48 47 49 34 32 25 31 22 25 31 35 41 41 43 43 42 41 40 37 36 35 32 31 29 30 32 34 35 37 38 38 35 34 33 32 33 33 32 32 31 34 34 36
32 36 40 43 45 42 47 48 34 25 19 24 28 34 33 38 38 39 38 38 38 37 35 33 32 31 30 28 28 30 30 32 32 31 30 31 32 31 30 31 31 31 31 33 35 36 38
38 40 42 42 42 40 39 44 44 33 25 29 25 25 31 33 37 35 35 34 32 31 30 30 29 29 29 27 26 26 27 27 26 26 27 27 27 27 28 28 28 28 31 33 34 36 37
39 40 41 41 40 39 39 39 43 41 33 29 22 24 27 26 27 29 29 29 28 26 24 25 25 25 23 23 24 24 23 23 22 22 23 23 23 23 24 25 27 29 31 32 32 29 29
36 37 39 40 39 39 37 36 37 41 39 34 24 19 20 22 25 27 26 27 25 26 24 24 23 21 21 21 20 21 20 19 19 19 20 20 21 23 25 27 29 29 27 25 27 28 27
31 33 34 36 39 38 38 36 34 33 35 34 27 23 19 18 19 23 23 24 23 23 21 22 20 20 19 18 20 18 17 17 17 18 20 21 23 25 25 25 23 23 24 21 16 14 11
34 29 30 31 33 34 35 34 34 31 29 28 26 24 21 17 13 15 19 20 20 18 16 17 18 17 16 18 17 17 17 18 19 21 21 21 21 20 20 22 22 15 8 7 9 11 11
34 32 28 26 27 28 30 30 30 30 28 25 23 20 19 17 16 14 13 14 15 15 13 13 13 13 14 13 12 13 14 14 16 17 16 16 18 15 10 6 7 8 8 10 9 11 12
31 31 29 29 23 24 24 26 26 25 25 25 21 19 17 15 14 13 15 14 12 14 13 11 11 10 12 12 14 15 15 14 15 14 14 10 8 7 7 8 8 8 10 10 8 9 11
28 28 28 27 27 21 20 19 21 22 21 20 20 19 16 13 13 13 12 11 11 13 15 14 15 15 14 14 13 13 13 12 10 10 10 9 8 9 10 10 9 8 6 5 7 8 8
27 25 25 25 24 22 20 15 14 15 17 17 17 16 15 15 14 11 11 11 11 11 12 13 12 11 11 10 9 9 9 8 7 7 8 8 7 7 6 6 5 6 7 8 9 8 6
24 24 22 21 22 20 18 17 11 9 9 11 12 12 13 12 12 14 14 13 12 11 11 11 11 11 10 9 9 8 8 8 8 8 7 7 7 7 7 8 8 9 9 10 10 11 10
22 24 24 19 20 19 17 15 13 9 4 3 5 7 7 9 10 11 11 12 12 11 11 11 10 9 9 9 8 8 7 7 7 8 9 9 9 9 10 10 10 11 12 14 14 13 13
24 24 23 22 19 19 18 15 12 10 8 4 4 3 6 7 8 9 10 11 10 11 11 10 9 9 8 8 8 9 9 10 11 11 11 12 11 12 12 13 13 15 17 18 19 20 19
25 27 26 25 24 20 19 19 17 14 11 7 7 9 9 10 10 11 11 12 12 12 12 11 10 10 10 11 11 11 12 12 13 14 15 15 16 17 18 18 19 19 22 24 25 24 27
28 28 29 30 28 28 23 21 21 18 17 15 12 9 14 15 15 14 15 15 16 16 16 15 15 15 15 15 16 16 17 17 18 19 20 21 20 23 24 25 25 24 25 28 28 29 32
31 32 33 33 33 30 30 28 24 21 20 20 18 17 15 16 20 21 21 21 21 20 20 20 20 20 20 20 21 21 22 23 22 23 24 25 24 26 24 30 32 30 32 33 36 36 34
36 34 34 36 35 38 34 31 28 22 21 21 21 22 21 20 20 22 24 26 27 26 26 26 26 26 26 26 27 27 27 27 27 28 29 30 32 33 29 32 34 32 34 35 35 35 35
40 40 39 35 36 38 33 30 27 24 22 21 22 23 22 22 23 23 24 26 28 29 30 31 32 32 32 33 33 33 34 34 35 35 35 34 35 34 31 33 35 34 35 39 39 39 38
41 35 34 30 30 29 29 27 23 22 23 23 21 23 21 21 23 23 25 26 27 28 30 31 32 33 34 35 36 36 36 36 35 35 35 36 37 39 37 36 38 37 36 40 42 44 43
33 31 30 26 23 22 23 22 24 22 22 20 16 18 21 21 21 24 25 26 27 29 29 30 31 33 35 36 38 37 38 38 39 37 37 38 40 39 39 41 38 33 33 37 42 47 44
39 37 31 31 31 29 26 25 25 23 22 19 18 17 18 20 21 21 24 26 26 28 30 30 31 31 33 35 35 36 36 36 37 37 36 38 40 40 42 47 43 40 39 41 45 48 50
47 47 45 40 37 36 34 31 28 28 25 24 27 28 25 24 23 22 23 25 26 29 29 27 32 32 36 38 39 39 41 38 38 40 40 41 43 45 49 52 53 48 52 51 51 53 54
56 54 52 52 45 44 41 38 38 36 36 35 33 32 32 32 31 31 30 30 28 28 29 28 31 32 35 36 39 42 42 42 42 45 43 48 46 49 47 48 48 54 62 62 62 61 60
Wind_Direction
39 33 33 42 60 61 67 71 70 80 89 111 133 139 150 136 117 140 151 169 173 164 169 175 179 185 190 193 194 199 201 205 208 210 215 221 228 231 234 239 243 247 255 262 268 267 269
43 41 39 46 53 61 58 63 80 85 112 102 111 128 130 154 136 125 157 156 164 155 165 170 172 178 186 194 193 198 202 206 210 213 218 223 232 237 243 245 250 256 261 263 266 269 272
43 43 43 45 47 54 61 69 68 81 93 99 99 91 92 127 131 155 140 157 154 153 160 165 167 173 183 193 195 196 202 206 212 215 219 226 235 238 244 252 255 262 262 266 269 270 270
42 44 45 43 48 47 61 57 58 68 75 103 95 107 101 122 128 137 139 150 146 151 157 159 162 169 178 190 194 198 201 205 212 214 216 225 237 243 247 257 260 269 266 264 266 269 270
36 40 39 36 46 48 52 53 64 64 64 95 101 121 121 129 135 140 146 144 147 152 155 157 160 166 172 183 193 199 205 209 218 234 241 245 250 254 252 253 257 262 262 264 267 269 272
29 29 27 38 41 50 55 59 54 72 71 85 110 133 128 131 141 143 145 146 149 151 153 157 162 166 172 180 190 198 206 215 221 223 229 231 235 243 243 245 251 255 260 264 267 268 271
26 22 23 33 45 50 52 54 59 70 81 90 109 131 133 138 145 148 145 150 151 152 155 161 165 168 174 179 186 193 198 204 208 213 220 225 230 234 240 246 251 256 261 266 272 278 281
39 39 38 39 44 48 51 51 56 65 86 93 115 128 135 144 150 147 146 149 152 155 159 164 172 175 177 183 187 194 202 207 210 215 221 228 234 238 243 249 256 264 273 278 281 284 283
42 42 43 43 45 51 51 51 56 65 78 97 121 132 138 148 146 144 146 147 148 153 162 170 173 178 184 185 192 200 207 211 216 222 227 232 237 243 252 263 271 275 278 283 284 284 287
37 39 45 47 47 47 52 56 59 63 76 93 121 129 141 143 143 146 147 149 154 160 167 173 179 182 187 191 196 207 215 218 223 228 234 241 250 260 266 272 277 281 281 283 286 289 290
34 37 39 46 49 49 52 60 65 65 70 84 101 105 137 139 146 149 153 160 163 165 169 175 182 187 192 196 206 209 218 226 234 241 247 256 264 269 272 274 274 276 282 284 287 291 298
36 34 35 41 49 52 53 54 63 69 71 77 86 103 116 128 144 166 169 172 175 176 178 183 188 195 199 205 212 219 231 240 248 252 256 259 262 264 266 270 273 271 260 274 290 293 295
29 34 37 35 39 48 54 55 56 65 72 77 79 91 101 126 138 155 174 193 193 195 197 201 202 209 215 219 225 231 235 236 239 245 246 251 258 264 254 235 229 248 270 282 295 299 296
30 27 30 36 34 37 47 55 57 60 67 74 80 87 95 102 113 147 161 168 182 197 198 199 204 209 213 218 223 227 227 230 235 241 248 239 211 216 242 249 257 264 276 290 308 319 313
27 26 23 26 34 31 33 44 56 57 64 72 81 85 93 106 118 129 139 156 177 190 191 198 201 199 202 206 212 218 230 233 217 204 201 215 240 254 260 263 260 262 267 283 309 326 334
9 22 24 19 17 27 29 27 40 57 60 64 75 86 93 95 101 117 136 147 155 165 170 176 183 193 203 204 195 185 177 179 189 211 239 244 245 245 241 242 251 267 286 293 302 306 301
353 3 13 17 12 7 17 24 18 31 56 69 71 79 91 101 110 111 111 117 128 143 157 160 162 162 161 166 172 187 200 205 209 209 217 229 240 249 253 260 268 273 280 287 292 295 291
340 344 353 2 359 358 355 2 14 11 356 46 93 100 108 110 114 117 125 131 135 140 145 152 156 161 167 174 181 190 202 215 230 241 248 252 251 255 257 264 271 279 285 288 287 281 283
324 329 334 340 349 345 342 335 335 345 355 284 251 193 168 164 159 152 147 146 148 152 157 163 169 178 188 199 211 220 227 233 238 243 248 256 262 265 268 273 275 278 280 280 279 283 288
310 316 320 324 326 329 332 322 312 306 304 305 264 242 229 209 203 200 198 194 192 192 194 199 207 215 222 229 237 242 249 255 260 263 265 267 270 272 274 274 274 276 277 278 278 283 279
301 305 309 312 315 316 318 320 305 295 285 285 278 257 236 235 228 226 227 224 224 223 222 224 229 235 242 248 253 258 260 262 263 265 266 269 270 273 277 279 280 278 279 279 279 282 282
293 299 304 305 308 309 308 313 312 296 291 272 268 267 265 249 238 238 236 237 239 239 240 243 245 247 250 252 253 257 262 263 264 265 267 269 270 269 268 275 279 281 281 281 283 284 285
289 292 296 301 304 307 304 304 306 303 291 284 275 265 259 259 259 249 244 241 242 246 248 250 251 254 257 258 259 262 263 266 267 269 272 275 275 276 276 275 277 279 280 281 280 282 284
286 291 291 291 297 303 297 298 302 301 300 289 284 281 261 254 255 259 259 255 253 252 252 254 257 260 263 264 265 265 266 268 270 271 272 272 274 273 275 276 276 276 278 279 280 279 279
283 286 293 288 293 299 295 301 302 299 299 298 285 277 270 259 255 256 256 259 261 262 264 263 262 263 262 263 264 266 267 268 267 268 269 270 269 270 272 270 272 278 276 275 276 274 277
275 282 290 284 283 296 293 304 308 302 302 295 293 284 283 272 261 262 262 262 264 264 262 263 266 267 268 267 267 267 268 270 270 268 268 268 270 272 274 273 271 269 270 272 275 277 280
277 282 283 282 278 280 278 283 292 299 295 289 290 295 292 288 278 263 261 264 266 268 268 269 271 271 272 271 272 275 274 274 274 274 272 270 272 275 276 275 273 275 274 272 273 276 277
275 277 280 283 279 277 279 276 279 281 281 276 279 285 287 287 287 285 282 276 272 270 269 268 270 272 272 274 276 275 274 274 275 275 277 277 278 278 276 280 283 282 280 280 279 277 280
275 276 279 279 279 274 274 277 278 280 279 281 277 271 271 276 278 277 277 278 279 279 281 281 278 274 273 274 274 276 276 276 279 280 278 277 276 277 277 282 285 283 283 284 281 282 284